"Time","Temp","Dewpoint","Humidity","Pressure","Direction","Speed","Gust","Precip","PrecipRate"
"00:04:56","44.1","36.4","74.4","30.13","345","0","0","0.00","0.00"
"00:09:59","43.9","36.5","75","30.13","345","0.5","2.4","0.00","0.00"
"00:14:59","43.7","36.6","76","30.13","345","1.1","2.4","0.00","0.00"
"00:19:57","43.7","36.6","76","30.13","345","0","0","0.00","0.00"
"00:24:58","43.6","36.5","76","30.13","345","0","0","0.00","0.00"
"00:29:56","43.4","36.3","76","30.13","345","0.6","2.4","0.00","0.00"
"00:34:57","43.4","36.6","76.7","30.13","345","0.1","1.2","0.00","0.00"
"00:39:56","43.2","36.5","77","30.13","345","0.7","2.4","0.00","0.00"
"00:44:57","43.1","36.4","77","30.13","345","0","1.2","0.00","0.00"
"00:49:59","42.9","36.3","77.3","30.13","345","0.2","2.4","0.00","0.00"
"00:54:56","42.8","36.4","78","30.13","345","0","1.2","0.00","0.00"
"00:59:57","42.7","36.3","78.1","30.13","345","1.3","2.4","0.00","0.00"
"01:04:58","42.7","36.4","78.3","30.13","345","1","2.4","0.00","0.00"
"01:09:58","42.8","36.7","79","30.13","345","1.2","2.4","0.00","0.00"
"01:14:56","42.8","36.5","78.3","30.13","345","0.1","1.2","0.00","0.00"
"01:19:58","42.8","36.6","78.7","30.13","345","0","0","0.00","0.00"
"01:24:59","42.7","36.6","79","30.13","345","0","0","0.00","0.00"
"01:29:57","42.6","36.5","79","30.14","345","0","0","0.00","0.00"
"01:34:59","42.5","36.4","79","30.14","345","0","0","0.00","0.00"
"01:39:57","42.4","36.6","79.7","30.14","345","0","0","0.00","0.00"
"01:44:59","42.3","36.6","80","30.14","345","0","0","0.00","0.00"
"01:49:57","42.2","36.5","80","30.14","345","0","0","0.00","0.00"
"01:54:58","42.1","36.4","80","30.14","345","0","0","0.00","0.00"
"01:59:59","42","36.3","80","30.14","345","0","0","0.00","0.00"
"02:04:57","42","36.3","80.1","30.14","345","0","0","0.00","0.00"
"02:09:57","42","36.6","81","30.14","345","0","0","0.00","0.00"
"02:14:59","41.9","36.5","81","30.14","345","0","0","0.00","0.00"
"02:19:57","41.9","36.5","81","30.14","345","0","0","0.00","0.00"
"02:24:59","41.8","36.4","81.1","30.14","345","0","0","0.00","0.00"
"02:29:56","41.6","36.5","82","30.14","345","0","0","0.00","0.00"
"02:34:58","41.5","36.4","82","30.14","345","0.1","1.2","0.00","0.00"
"02:39:56","41.3","36.2","82","30.14","345","0","0","0.00","0.00"
"02:44:58","41.3","36.3","82.2","30.14","345","0","0","0.00","0.00"
"02:49:59","41.3","36.4","82.6","30.14","345","0","0","0.00","0.00"
"02:54:57","41.3","36.2","82","30.14","345","0","0","0.00","0.00"
"02:59:59","41.3","36.5","83","30.15","345","0","0","0.00","0.00"
"03:04:57","41.2","36.4","83","30.15","345","0","0","0.00","0.00"
"03:09:57","41.2","36.4","83","30.15","345","0","0","0.00","0.00"
"03:14:56","41.3","36.5","83.2","30.15","345","0","0","0.00","0.00"
"03:19:57","41.3","36.5","83","30.15","345","0","0","0.00","0.00"
"03:24:58","41.3","36.5","83","30.15","345","0","0","0.00","0.00"
"03:29:56","41.2","36.4","83","30.15","345","0","0","0.00","0.00"
"03:34:57","41.1","36.3","83","30.15","345","0","0","0.00","0.00"
"03:39:59","41","36.3","83.4","30.15","345","0","0","0.00","0.00"
"03:44:57","41","36.5","84","30.15","345","0","0","0.00","0.00"
"03:49:58","41","36.5","84","30.15","345","0","0","0.00","0.00"
"03:54:57","40.9","36.4","84","30.15","345","0","0","0.00","0.00"
"03:59:57","40.8","36.3","84","30.15","345","0","0","0.00","0.00"
"04:04:58","40.6","36.1","84","30.15","345","0","0","0.00","0.00"
"04:09:58","40.5","36","84.2","30.15","346","0","0","0.00","0.00"
"04:14:56","40.3","36","84.6","30.15","346","0","0","0.00","0.00"
"04:19:59","40.2","36.1","85","30.15","346","0","0","0.00","0.00"
"04:24:57","40","35.9","85","30.15","346","0","0","0.00","0.00"
"04:29:58","39.9","35.9","85.6","30.16","346","0","0","0.00","0.00"
"04:34:59","39.7","35.9","86","30.16","346","0","0","0.00","0.00"
"04:39:58","39.5","35.7","86","30.16","346","0","0","0.00","0.00"
"04:44:58","39.3","35.5","86","30.16","346","0","0","0.00","0.00"
"04:49:56","39.2","35.4","86","30.16","346","0","0","0.00","0.00"
"04:54:56","39","35.4","86.4","30.16","346","0","0","0.00","0.00"
"04:59:58","39","35.5","87","30.17","346","0","0","0.00","0.00"
"05:04:59","38.9","35.4","87","30.17","346","0","0","0.00","0.00"
"05:09:59","38.7","35.2","87","30.17","346","0","0","0.00","0.00"
"05:14:57","38.6","35.1","87","30.17","346","0","0","0.00","0.00"
"05:19:57","38.4","35.1","87.6","30.17","346","0","0","0.00","0.00"
"05:24:57","38.4","35.2","88","30.17","346","0","0","0.00","0.00"
"05:29:58","38.3","35.1","88","30.17","346","0","0","0.00","0.00"
"05:34:58","38.1","34.9","88","30.17","346","0","0","0.00","0.00"
"05:39:59","37.9","34.7","88","30.17","346","0","0","0.00","0.00"
"05:44:59","37.8","34.8","88.7","30.18","346","0","0","0.00","0.00"
"05:49:56","37.7","34.7","88.9","30.18","346","0","0","0.00","0.00"
"05:54:56","37.5","34.4","88.3","30.18","346","0","0","0.00","0.00"
"05:59:57","37.4","34.5","89","30.18","346","0","0","0.00","0.00"
"06:04:58","37.3","34.4","89","30.17","346","0","0","0.00","0.00"
"06:09:59","37.4","34.6","89.5","30.17","346","0","0","0.00","0.00"
"06:14:57","37.5","34.8","90","30.18","346","0","0","0.00","0.00"
"06:19:58","37.4","34.6","89.7","30.18","346","0","0","0.00","0.00"
"06:24:58","37.3","34.4","89","30.18","346","0","0","0.00","0.00"
"06:29:58","37.2","34.5","89.8","30.18","346","0","0","0.00","0.00"
"06:34:58","37.1","34.4","90","30.18","346","0","0","0.00","0.00"
"06:39:56","37","34.3","90","30.18","346","0","0","0.00","0.00"
"06:44:57","37","34.3","90","30.19","346","0","0","0.00","0.00"
"06:49:57","36.9","34.2","90","30.19","346","0","0","0.00","0.00"
"06:54:58","36.9","34.2","90","30.19","346","0","0","0.00","0.00"
"06:59:59","36.9","34.2","90","30.19","346","0","0","0.00","0.00"
"07:04:56","36.8","34.1","90","30.19","346","0","0","0.00","0.00"
"07:09:56","36.9","34.4","90.8","30.19","346","0","0","0.00","0.00"
"07:14:58","37.1","34.7","91","30.19","346","0","0","0.00","0.00"
"07:19:59","37.3","34.9","91","30.19","346","0","0","0.00","0.00"
"07:24:59","37.5","35.1","91","30.19","346","0","0","0.00","0.00"
"07:29:59","37.6","35.2","91","30.19","346","0","0","0.00","0.00"
"07:34:56","37.7","35.3","91","30.19","346","0","0","0.00","0.00"
"07:39:59","37.7","35.3","91","30.19","346","0","0","0.00","0.00"
"07:44:56","38","35.6","91","30.20","346","0","0","0.00","0.00"
"07:49:57","38.4","36","91","30.20","346","0","0","0.00","0.00"
"07:54:58","39","36.8","91.5","30.20","346","0","0","0.00","0.00"
"07:59:59","39.9","37.8","92","30.20","346","0","0","0.00","0.00"
"08:04:56","40.8","38.5","91.3","30.20","346","0","0","0.00","0.00"
"08:09:56","41.6","39.1","90.7","30.20","346","0","0","0.00","0.00"
"08:14:58","42.4","39.6","89.7","30.20","346","0","0","0.00","0.00"
"08:19:59","43.3","40.1","88.1","30.20","346","0","0","0.00","0.00"
"08:24:58","45.8","40.7","82.2","30.20","346","0","0","0.00","0.00"
"08:29:59","48","40.7","75.9","30.20","345","0.2","2.4","0.00","0.00"
"08:34:58","49.2","41.1","73.5","30.20","345","0.8","3.6","0.00","0.00"
"08:39:59","49.6","40.4","70.7","30.20","355","0.7","2.4","0.00","0.00"
"08:44:59","50.2","40","68","30.20","355","0.8","2.4","0.00","0.00"
"08:49:57","50.6","39.8","66.3","30.19","355","0.6","2.4","0.00","0.00"
"08:54:57","51.1","39.8","65.3","30.19","39","1.4","4.8","0.00","0.00"
"08:59:57","51","39.4","64.6","30.19","53","0.5","2.4","0.00","0.00"
"09:04:57","50.9","39.1","63.8","30.19","53","1.4","3.6","0.00","0.00"
"09:09:57","50.6","39.2","64.7","30.19","52","1.5","3.6","0.00","0.00"
"09:14:58","51.5","39.6","63.8","30.19","322","1.2","3.6","0.00","0.00"
"09:19:58","52","39.8","63.1","30.18","318","1.4","2.4","0.00","0.00"
"09:24:58","52.5","39.6","61.4","30.18","236","0.9","3.6","0.00","0.00"
"09:29:58","53.3","39.6","59.8","30.18","218","0.4","3.6","0.00","0.00"
"09:34:57","53.7","39.9","59.4","30.18","318","1.3","3.5","0.00","0.00"
"09:39:59","53.9","39.9","59.1","30.18","317","0.6","2.4","0.00","0.00"
"09:44:59","53.9","40.2","59.7","30.18","330","0.9","3.6","0.00","0.00"
"09:49:58","53.5","39.7","59.3","30.17","124","1.9","4.8","0.00","0.00"
"09:54:58","53.9","39.7","58.5","30.17","119","2.7","6","0.00","0.00"
"09:59:58","54.6","40.2","58.3","30.17","139","1.3","6","0.00","0.00"
"10:04:58","54.3","39.8","57.9","30.17","157","1.6","3.6","0.00","0.00"
"10:09:58","54.5","40.1","58","30.17","156","1.4","4.8","0.00","0.00"
"10:14:59","54.7","39.9","57.2","30.17","163","1.9","4.8","0.00","0.00"
"10:19:59","54.9","39.4","56","30.16","163","2","4.8","0.00","0.00"
"10:24:56","54.9","39.6","56.2","30.16","163","1","2.4","0.00","0.00"
"10:29:59","55.2","39.6","55.6","30.16","108","1.8","3.6","0.00","0.00"
"10:34:57","55.6","40.8","57.5","30.14","49","2","3.6","0.00","0.00"
"10:39:57","55.8","40.6","56.4","30.14","55","1.4","3.6","0.00","0.00"
"10:44:57","56.4","40.7","55.5","30.14","54","1.3","3.6","0.00","0.00"
"10:49:57","56.9","41","55.3","30.14","59","1.5","3.6","0.00","0.00"
"10:54:57","57.1","41.1","55","30.14","111","2.3","7.2","0.00","0.00"
"10:59:57","57.9","41.9","55.3","30.14","177","1.5","4.8","0.00","0.00"
"11:04:57","58.5","42.4","55.2","30.14","188","1.5","3.6","0.00","0.00"
"11:09:57","58.1","40.8","52.6","30.14","186","1.2","3.6","0.00","0.00"
"11:14:58","58.3","41.5","53.5","30.14","151","1.3","6","0.00","0.00"
"11:19:58","58.3","42.5","55.7","30.14","103","2.2","4.6","0.00","0.00"
"11:24:57","58.7","42.7","55.3","30.14","123","1.8","6","0.00","0.00"
"11:29:57","58.8","42.5","54.7","30.14","187","2.2","5.8","0.00","0.00"
"11:34:56","59.2","42.4","53.7","30.12","157","1.9","4.8","0.00","0.00"
"11:39:57","59.1","42.7","54.6","30.12","126","3.6","8.4","0.00","0.00"
"11:44:57","59.4","42.9","54.4","30.12","146","2.7","6.9","0.00","0.00"
"11:49:57","60.1","43.2","53.7","30.11","131","2.7","4.8","0.00","0.00"
"11:54:57","60.4","43.8","54.4","30.11","149","3.1","8.4","0.00","0.00"
"11:59:56","60.8","42.6","51.2","30.11","161","2.4","6","0.00","0.00"
"12:04:56","60.3","42.6","52","30.11","168","4.3","8.4","0.00","0.00"
"12:09:56","60.7","43.3","52.8","30.11","189","4.3","7.2","0.00","0.00"
"12:14:57","61","43.4","52.4","30.11","199","2.8","4.8","0.00","0.00"
"12:19:57","60.9","42.8","51.3","30.10","202","2.2","4.8","0.00","0.00"
"12:24:57","61.5","43.7","52.2","30.10","180","2","7.2","0.00","0.00"
"12:29:57","61.2","43.2","51.6","30.10","139","2.4","4.8","0.00","0.00"
"12:34:57","61.4","44.2","53.1","30.09","115","3.9","7.2","0.00","0.00"
"12:39:58","61.4","43.2","51.1","30.09","117","1.5","4.6","0.00","0.00"
"12:44:58","61.8","43.4","50.8","30.09","129","2.2","6","0.00","0.00"
"12:49:58","62.1","43.4","50.3","30.08","194","3.3","7.2","0.00","0.00"
"12:54:58","62.8","43.4","49.3","30.08","200","3.4","7.2","0.00","0.00"
"12:59:58","62","42.5","48.7","30.08","135","3.2","6","0.00","0.00"
"13:04:58","61.6","42.6","49.7","30.07","182","4.1","8.4","0.00","0.00"
"13:09:59","62.1","43.1","49.7","30.07","196","3.5","7.2","0.00","0.00"
"13:14:56","62.2","43.8","51","30.07","217","2.3","4.8","0.00","0.00"
"13:19:56","62.7","43.2","48.9","30.06","135","2.6","6","0.00","0.00"
"13:24:59","62.8","43","48.4","30.06","116","2.8","8.4","0.00","0.00"
"13:29:59","62.6","42.7","48.2","30.06","140","4.5","10.8","0.00","0.00"
"13:34:58","62.7","42.9","48.3","30.05","124","3","7.2","0.00","0.00"
"13:39:56","63.3","43.1","47.7","30.05","196","3.5","7.2","0.00","0.00"
"13:44:59","63","42.8","47.6","30.05","171","1.3","4.6","0.00","0.00"
"13:49:59","63.9","44.4","49.1","30.04","177","2.6","4.8","0.00","0.00"
"13:54:59","65.2","44.5","47.2","30.04","208","3","7.2","0.00","0.00"
"13:59:59","64.4","43.1","46","30.04","159","4.2","8.4","0.00","0.00"
"14:04:59","64","42.8","46.1","30.03","160","3.5","10.8","0.00","0.00"
"14:09:59","63.6","43.2","47.3","30.03","202","5.7","10.8","0.00","0.00"
"14:14:59","63.1","43.3","48.5","30.03","199","4.6","7.2","0.00","0.00"
"14:19:59","63.6","44","48.8","30.02","188","4","7.2","0.00","0.00"
"14:24:58","64.5","44.4","48","30.02","155","3.1","6.9","0.00","0.00"
"14:29:58","64.7","44.2","47.4","30.02","145","3.5","6","0.00","0.00"
"14:34:58","64.8","44.4","47.6","30.00","136","2.6","6","0.00","0.00"
"14:39:59","64.8","44.8","48.4","30.00","167","4.1","10.8","0.00","0.00"
"14:44:59","64.7","43.9","47","30.00","146","4","8.4","0.00","0.00"
"14:49:59","63.9","44.4","49.2","30.00","123","3.4","8.4","0.00","0.00"
"14:54:58","64.2","44.5","48.7","30.00","163","3.5","6","0.00","0.00"
"14:59:58","64.2","44.8","49.4","30.00","139","3","6","0.00","0.00"
"15:04:59","64.4","44.9","49.3","30.00","157","3.2","6","0.00","0.00"
"15:09:58","64.5","44.8","48.8","30.00","138","3.5","8.4","0.00","0.00"
"15:14:59","64.8","45.3","49.4","30.00","185","2.8","6","0.00","0.00"
"15:19:59","64.8","45.6","49.7","30.00","196","3.3","6","0.00","0.00"
"15:24:59","64.4","45.2","49.8","30.00","153","2.3","6","0.00","0.00"
"15:29:59","64.3","44.9","49.3","30.00","139","3.4","7.2","0.00","0.00"
"15:34:59","63.6","44.2","49.1","30.00","125","3.2","6","0.00","0.00"
"15:39:56","63.4","44.9","50.9","30.00","125","1.9","3.6","0.00","0.00"
"15:44:56","63.4","44.7","50.7","30.00","125","3.1","6","0.00","0.00"
"15:49:59","63.4","44.9","51","29.99","147","2.5","6","0.00","0.00"
"15:54:59","63.5","44.7","50.4","29.99","137","2","6","0.00","0.00"
"15:59:59","63.5","44.2","49.5","29.99","161","3.9","10.8","0.00","0.00"
"16:04:59","63.3","44.2","49.7","29.98","170","3.4","12","0.00","0.00"
"16:09:59","63.1","43.7","49","29.98","170","4.3","8.1","0.00","0.00"
"16:14:56","63.2","43.8","49.3","29.98","180","2.9","6","0.00","0.00"
"16:19:56","63","44","49.8","29.98","187","3.3","7.2","0.00","0.00"
"16:24:56","63","44","49.8","29.98","165","2.8","5.8","0.00","0.00"
"16:29:57","62.8","44.1","50.4","29.98","170","2","4.8","0.00","0.00"
"16:34:57","62.4","44","51","29.98","174","2.4","6","0.00","0.00"
"16:39:58","62.2","43.8","51","29.98","166","2.7","7.2","0.00","0.00"
"16:44:59","62.2","44","51.5","29.99","159","2.1","4.8","0.00","0.00"
"16:49:56","62","44.2","52","29.99","153","1.9","3.6","0.00","0.00"
"16:54:56","61.8","44.3","52.6","29.99","144","1.8","3.6","0.00","0.00"
"16:59:57","61.5","44.5","53.6","29.99","131","1.4","4.8","0.00","0.00"
"17:04:57","61.2","44.5","54.2","29.99","131","1.1","3.6","0.00","0.00"
"17:09:57","60.9","44.6","55","29.99","131","0.6","3.5","0.00","0.00"
"17:14:59","60.7","44.5","55.2","30.00","131","1.4","4.8","0.00","0.00"
"17:19:57","60.6","44.7","55.8","30.00","132","0.6","3.5","0.00","0.00"
"17:24:57","60.3","44.7","56.3","30.00","132","0.2","3.6","0.00","0.00"
"17:29:58","60","44.8","57.3","30.00","131","1.5","3.6","0.00","0.00"
"17:34:59","59.8","44.8","57.7","29.99","132","0.5","2.4","0.00","0.00"
"17:39:58","59.6","45.1","58.7","29.99","132","0.8","3.6","0.00","0.00"
"17:44:59","59.4","45.1","59","30.00","131","1.9","3.6","0.00","0.00"
"17:49:56","59.3","45.1","59.2","30.00","131","1.2","3.6","0.00","0.00"
"17:54:57","59.2","45.1","59.6","30.00","132","0.6","3.6","0.00","0.00"
"17:59:58","58.8","44.9","60","30.00","132","0.9","3.6","0.00","0.00"
"18:04:58","58.5","45","60.7","30.00","139","0.7","3.6","0.00","0.00"
"18:09:58","58.1","44.9","61.6","30.00","139","0.4","2.4","0.00","0.00"
"18:14:56","57.8","45.1","62.5","30.00","139","0.7","2.4","0.00","0.00"
"18:19:58","57.5","45","63","30.00","139","0.7","1.2","0.00","0.00"
"18:24:58","57.2","44.9","63.5","30.00","138","0.7","3.6","0.00","0.00"
"18:29:58","57.1","45","64","30.00","138","0.8","3.6","0.00","0.00"
"18:34:59","57","44.9","64","30.00","138","0.8","3.6","0.00","0.00"
"18:39:57","56.9","45.1","64.6","30.00","138","0.7","3.6","0.00","0.00"
"18:44:57","56.7","45.5","65.9","30.00","138","1.2","3.6","0.00","0.00"
"18:49:57","56.6","45.6","66.4","30.00","138","1.2","2.4","0.00","0.00"
"18:54:57","56.6","45.8","67","30.00","138","0.8","2.4","0.00","0.00"
"18:59:58","56.4","45.8","67.5","30.00","138","0.4","2.4","0.00","0.00"
"19:04:58","56.2","45.8","68","30.00","138","0.6","2.4","0.00","0.00"
"19:09:58","55.6","45.4","68.4","30.00","138","1.1","2.4","0.00","0.00"
"19:14:56","54.9","45.1","69.4","30.00","138","0.8","2.4","0.00","0.00"
"19:19:57","54.4","45","70.6","30.00","138","0.4","2.3","0.00","0.00"
"19:24:57","53.9","44.9","71.4","30.00","138","0.6","2.4","0.00","0.00"
"19:29:58","53.6","44.8","72","30.00","138","0.4","2.3","0.00","0.00"
"19:34:58","53.3","44.8","72.7","30.00","138","0.1","2.4","0.00","0.00"
"19:39:57","53.1","44.7","73","30.00","138","0.5","2.4","0.00","0.00"
"19:44:59","52.9","44.5","73","30.00","138","0.2","1.2","0.00","0.00"
"19:49:56","52.7","44.4","73.6","30.00","138","0","1.2","0.00","0.00"
"19:54:57","52.4","44.4","74","30.00","138","0","0","0.00","0.00"
"19:59:59","52.1","44.4","75","30.00","138","0","0","0.00","0.00"
"20:04:56","51.9","44.2","75","30.00","138","0","0","0.00","0.00"
"20:09:57","51.7","44.4","75.8","30.00","138","0","0","0.00","0.00"
"20:14:59","51.6","44.3","76","30.00","138","0","0","0.00","0.00"
"20:19:57","51.4","44.2","76.1","29.99","138","0","0","0.00","0.00"
"20:24:59","51.3","44.3","77","29.99","138","0","0","0.00","0.00"
"20:29:56","51.2","44.2","77","29.99","138","0","0","0.00","0.00"
"20:34:57","51.1","44.5","78","29.99","138","0","0","0.00","0.00"
"20:39:56","51.1","44.5","78.2","29.99","138","0.7","2.4","0.00","0.00"
"20:44:57","51","44.6","78.7","29.99","138","0.7","1.2","0.00","0.00"
"20:49:58","51","44.4","78.1","29.99","138","0","1.2","0.00","0.00"
"20:54:59","50.9","44.3","78.1","29.99","138","0","0","0.00","0.00"
"20:59:57","50.7","44.4","79","29.99","138","0","0","0.00","0.00"
"21:04:58","50.4","44.1","79","29.98","138","0","0","0.00","0.00"
"21:09:58","50.3","44","79.2","29.98","138","0","0","0.00","0.00"
"21:14:57","50.1","44.2","80","29.98","138","0","0","0.00","0.00"
"21:19:58","49.9","44","80","29.98","138","0","0","0.00","0.00"
"21:24:59","49.7","43.8","80","29.98","138","0","0","0.00","0.00"
"21:29:56","49.5","43.9","80.9","29.98","138","0","0","0.00","0.00"
"21:34:57","49.3","43.9","81.4","29.98","138","0","0","0.00","0.00"
"21:39:59","49.3","44","82","29.98","138","0","0","0.00","0.00"
"21:44:56","49.2","43.9","82.2","29.98","138","0","0","0.00","0.00"
"21:49:59","49.1","44.2","83","29.97","138","0","0","0.00","0.00"
"21:54:56","49.1","44.2","83","29.97","138","0","0","0.00","0.00"
"21:59:58","49.3","44.7","83.9","29.97","138","0","0","0.00","0.00"
"22:04:59","49.8","45.3","84.5","29.97","138","0","1.2","0.00","0.00"
"22:09:58","50.2","45.6","84","29.97","138","0.1","1.2","0.00","0.00"
"22:14:56","50.5","45.7","83.6","29.97","138","0","1.2","0.00","0.00"
"22:19:56","50.7","45.7","83.2","29.96","138","0.2","1.2","0.00","0.00"
"22:24:57","50.7","45.7","83","29.96","138","0.3","3.6","0.00","0.00"
"22:29:57","50.7","45.7","83","29.96","138","0.6","2.4","0.00","0.00"
"22:34:58","50.7","45.8","83.3","29.95","139","0.9","3.6","0.00","0.00"
"22:39:59","50.9","46.2","84","29.95","142","0.8","3.5","0.00","0.00"
"22:44:57","51.1","46.4","84","29.95","155","1.3","4.8","0.00","0.00"
"22:49:57","51.4","46.6","83.6","29.95","179","1.7","4.8","0.00","0.00"
"22:54:56","51.6","46.7","83.2","29.95","186","2.6","7.2","0.00","0.00"
"22:59:56","51.9","46.9","83","29.95","166","2","4.8","0.00","0.00"
"23:04:56","52.2","47.1","82.4","29.94","187","2.2","7.2","0.00","0.00"
"23:09:56","52.5","47.2","82","29.94","183","2.5","7.2","0.00","0.00"
"23:14:58","52.7","47","81.1","29.94","158","2.3","3.6","0.00","0.00"
"23:19:59","52.8","47.1","81","29.94","168","2.6","4.8","0.00","0.00"
"23:24:56","52.8","47.1","81","29.94","181","2","3.6","0.00","0.00"
"23:29:57","52.7","47","81","29.94","195","2.3","7.2","0.00","0.00"
"23:34:57","52.7","47","81","29.93","191","3.5","7.2","0.00","0.00"
"23:39:55","52.7","47","81","29.93","185","2.7","6.9","0.00","0.00"
